Time,TemperatureF,DewpointF,PressureIn,WindDirection,WindDirectionDegrees,WindSpeedMPH,WindSpeedGustMPH,Humidity,HourlyPrecipIn,Conditions,Clouds,dailyrainin,SoftwareType,DateUTC
2013-06-07 00:02:00,75.4,73.0,29.83,SE,137,0.0,-999.0,92,-99.99,,,0.06,weatherlink.com 1.10,2013-06-07 04:02:00,
2013-06-07 00:17:00,75.4,73.0,29.82,SE,133,0.0,-999.0,92,-99.99,,,0.06,weatherlink.com 1.10,2013-06-07 04:17:00,
2013-06-07 00:32:00,75.4,73.0,29.82,SE,143,0.0,-999.0,92,-99.99,,,0.06,weatherlink.com 1.10,2013-06-07 04:32:00,
2013-06-07 00:47:00,75.4,73.0,29.81,SE,127,0.0,-999.0,92,-99.99,,,0.06,weatherlink.com 1.10,2013-06-07 04:47:00,
2013-06-07 01:02:00,75.4,73.0,29.81,SE,126,0.0,-999.0,92,-99.99,,,0.07,weatherlink.com 1.10,2013-06-07 05:02:00,
2013-06-07 01:17:00,75.3,73.0,29.80,SE,126,7.0,-999.0,92,-99.99,,,0.07,weatherlink.com 1.10,2013-06-07 05:17:00,
2013-06-07 01:32:00,75.3,73.0,29.80,ESE,113,8.0,-999.0,92,-99.99,,,0.00,weatherlink.com 1.10,2013-06-07 05:32:00,
2013-06-07 01:47:00,75.3,73.0,29.78,ESE,121,0.0,-999.0,93,-99.99,,,0.01,weatherlink.com 1.10,2013-06-07 05:47:00,
2013-06-07 02:02:00,75.3,74.0,29.77,SE,126,7.0,-999.0,94,-99.99,,,0.02,weatherlink.com 1.10,2013-06-07 06:02:00,
2013-06-07 02:17:00,75.3,74.0,29.77,SE,124,6.0,-999.0,94,-99.99,,,0.05,weatherlink.com 1.10,2013-06-07 06:17:00,
2013-06-07 02:32:00,75.1,73.0,29.75,ESE,109,0.0,-999.0,94,-99.99,,,0.14,weatherlink.com 1.10,2013-06-07 06:32:00,
2013-06-07 02:47:00,75.1,74.0,29.75,SE,133,14.0,-999.0,95,-99.99,,,0.21,weatherlink.com 1.10,2013-06-07 06:47:00,
2013-06-07 03:02:00,75.1,74.0,29.72,SE,126,14.0,-999.0,95,-99.99,,,0.27,weatherlink.com 1.10,2013-06-07 07:02:00,
2013-06-07 03:17:00,75.4,74.0,29.73,ESE,119,11.0,-999.0,95,-99.99,,,0.29,weatherlink.com 1.10,2013-06-07 07:17:00,
2013-06-07 03:32:00,75.6,74.0,29.72,ESE,121,14.0,-999.0,95,-99.99,,,0.29,weatherlink.com 1.10,2013-06-07 07:32:00,
2013-06-07 03:47:00,75.4,74.0,29.71,SSE,151,11.0,-999.0,95,-99.99,,,0.30,weatherlink.com 1.10,2013-06-07 07:47:00,
2013-06-07 04:02:00,74.6,73.0,29.71,SE,140,14.0,-999.0,95,-99.99,,,0.38,weatherlink.com 1.10,2013-06-07 08:02:00,
2013-06-07 04:17:00,74.2,73.0,29.71,SSE,158,9.0,-999.0,95,-99.99,,,0.39,weatherlink.com 1.10,2013-06-07 08:17:00,
2013-06-07 04:32:00,75.3,74.0,29.69,SE,130,20.0,-999.0,94,-99.99,,,0.39,weatherlink.com 1.10,2013-06-07 08:32:00,
2013-06-07 04:47:00,75.1,73.0,29.68,South,186,10.0,-999.0,94,-99.99,,,0.42,weatherlink.com 1.10,2013-06-07 08:47:00,
2013-06-07 05:02:00,75.6,74.0,29.68,South,189,0.0,-999.0,94,-99.99,,,0.44,weatherlink.com 1.10,2013-06-07 09:02:00,
2013-06-07 05:17:00,76.7,75.0,29.67,South,179,15.0,-999.0,95,-99.99,,,0.44,weatherlink.com 1.10,2013-06-07 09:17:00,
2013-06-07 05:32:00,76.7,75.0,29.67,SSW,205,16.0,-999.0,93,-99.99,,,0.44,weatherlink.com 1.10,2013-06-07 09:32:00,
2013-06-07 05:47:00,76.7,74.0,29.67,South,171,13.0,-999.0,92,-99.99,,,0.44,weatherlink.com 1.10,2013-06-07 09:47:00,
2013-06-07 06:02:00,76.3,74.0,29.67,SSW,193,15.0,-999.0,91,-99.99,,,0.44,weatherlink.com 1.10,2013-06-07 10:02:00,
2013-06-07 06:17:00,76.7,74.0,29.67,SSE,160,11.0,-999.0,92,-99.99,,,0.44,weatherlink.com 1.10,2013-06-07 10:17:00,
2013-06-07 06:32:00,77.2,75.0,29.67,SSE,157,10.0,-999.0,92,-99.99,,,0.44,weatherlink.com 1.10,2013-06-07 10:32:00,
2013-06-07 06:47:00,77.7,75.0,29.67,South,176,21.0,-999.0,91,-99.99,,,0.44,weatherlink.com 1.10,2013-06-07 10:47:00,
2013-06-07 07:02:00,78.1,75.0,29.66,SSE,157,11.0,-999.0,89,-99.99,,,0.44,weatherlink.com 1.10,2013-06-07 11:02:00,
2013-06-07 07:17:00,78.3,75.0,29.66,South,178,13.0,-999.0,88,-99.99,,,0.44,weatherlink.com 1.10,2013-06-07 11:17:00,
2013-06-07 07:32:00,78.3,75.0,29.66,SSE,164,16.0,-999.0,88,-99.99,,,0.44,weatherlink.com 1.10,2013-06-07 11:32:00,
2013-06-07 07:47:00,78.3,75.0,29.66,SSE,158,8.0,-999.0,89,-99.99,,,0.44,weatherlink.com 1.10,2013-06-07 11:47:00,
2013-06-07 08:02:00,78.5,75.0,29.65,SE,126,10.0,-999.0,88,-99.99,,,0.44,weatherlink.com 1.10,2013-06-07 12:02:00,
2013-06-07 08:17:00,78.8,75.0,29.65,South,184,16.0,-999.0,88,-99.99,,,0.44,weatherlink.com 1.10,2013-06-07 12:17:00,
2013-06-07 08:32:00,79.0,74.0,29.65,SSW,195,14.0,-999.0,85,-99.99,,,0.44,weatherlink.com 1.10,2013-06-07 12:32:00,
2013-06-07 08:47:00,79.2,74.0,29.65,South,172,15.0,-999.0,84,-99.99,,,0.44,weatherlink.com 1.10,2013-06-07 12:47:00,
2013-06-07 09:02:00,79.2,74.0,29.65,South,184,17.0,-999.0,84,-99.99,,,0.44,weatherlink.com 1.10,2013-06-07 13:02:00,
2013-06-07 09:17:00,79.4,74.0,29.65,South,184,16.0,-999.0,84,-99.99,,,0.44,weatherlink.com 1.10,2013-06-07 13:17:00,
2013-06-07 09:32:00,79.4,74.0,29.64,South,169,16.0,-999.0,84,-99.99,,,0.44,weatherlink.com 1.10,2013-06-07 13:32:00,
2013-06-07 09:47:00,79.4,75.0,29.64,SSW,192,16.0,-999.0,85,-99.99,,,0.44,weatherlink.com 1.10,2013-06-07 13:47:00,
2013-06-07 10:02:00,79.6,75.0,29.64,South,179,17.0,-999.0,85,-99.99,,,0.44,weatherlink.com 1.10,2013-06-07 14:02:00,
2013-06-07 10:17:00,79.6,75.0,29.63,SSW,196,21.0,-999.0,85,-99.99,,,0.44,weatherlink.com 1.10,2013-06-07 14:17:00,
2013-06-07 10:32:00,79.9,75.0,29.63,SE,134,22.0,-999.0,85,-99.99,,,0.44,weatherlink.com 1.10,2013-06-07 14:32:00,
2013-06-07 10:47:00,80.3,75.0,29.63,South,178,14.0,-999.0,84,-99.99,,,0.44,weatherlink.com 1.10,2013-06-07 14:47:00,
2013-06-07 11:02:00,80.5,75.0,29.62,SSE,154,10.0,-999.0,82,-99.99,,,0.44,weatherlink.com 1.10,2013-06-07 15:02:00,
2013-06-07 11:17:00,80.3,75.0,29.62,SSE,167,9.0,-999.0,83,-99.99,,,0.44,weatherlink.com 1.10,2013-06-07 15:17:00,
2013-06-07 11:32:00,80.5,75.0,29.62,SSW,192,20.0,-999.0,82,-99.99,,,0.44,weatherlink.com 1.10,2013-06-07 15:32:00,
2013-06-07 11:47:00,80.5,75.0,29.61,South,181,14.0,-999.0,82,-99.99,,,0.44,weatherlink.com 1.10,2013-06-07 15:47:00,
2013-06-07 12:02:00,80.5,74.0,29.61,South,171,18.0,-999.0,81,-99.99,,,0.44,weatherlink.com 1.10,2013-06-07 16:02:00,
2013-06-07 12:17:00,81.1,74.0,29.60,South,188,16.0,-999.0,80,-99.99,,,0.44,weatherlink.com 1.10,2013-06-07 16:17:00,
2013-06-07 12:32:00,80.3,74.0,29.61,SSE,158,14.0,-999.0,80,-99.99,,,0.44,weatherlink.com 1.10,2013-06-07 16:32:00,
2013-06-07 12:47:00,79.2,75.0,29.59,South,188,23.0,-999.0,86,-99.99,,,0.48,weatherlink.com 1.10,2013-06-07 16:47:00,
2013-06-07 13:02:00,76.0,74.0,29.59,SSW,205,15.0,-999.0,92,-99.99,,,0.54,weatherlink.com 1.10,2013-06-07 17:02:00,
2013-06-07 13:17:00,77.4,74.0,29.58,SSE,162,16.0,-999.0,89,-99.99,,,0.54,weatherlink.com 1.10,2013-06-07 17:17:00,
2013-06-07 13:32:00,77.7,74.0,29.58,South,176,7.0,-999.0,87,-99.99,,,0.54,weatherlink.com 1.10,2013-06-07 17:32:00,
2013-06-07 13:47:00,77.7,74.0,29.56,SSW,206,15.0,-999.0,87,-99.99,,,0.54,weatherlink.com 1.10,2013-06-07 17:47:00,
2013-06-07 14:02:00,78.5,74.0,29.56,SSW,199,18.0,-999.0,85,-99.99,,,0.54,weatherlink.com 1.10,2013-06-07 18:02:00,
2013-06-07 14:17:00,78.6,73.0,29.56,SSW,208,15.0,-999.0,84,-99.99,,,0.54,weatherlink.com 1.10,2013-06-07 18:17:00,
2013-06-07 14:32:00,78.8,73.0,29.55,WSW,241,10.0,-999.0,83,-99.99,,,0.54,weatherlink.com 1.10,2013-06-07 18:32:00,
2013-06-07 14:47:00,77.6,74.0,29.55,SSW,213,4.0,-999.0,87,-99.99,,,0.54,weatherlink.com 1.10,2013-06-07 18:47:00,
2013-06-07 15:02:00,77.7,73.0,29.54,SSW,205,30.0,-999.0,84,-99.99,,,0.54,weatherlink.com 1.10,2013-06-07 19:02:00,
2013-06-07 15:17:00,77.4,73.0,29.55,SSW,212,10.0,-999.0,86,-99.99,,,0.54,weatherlink.com 1.10,2013-06-07 19:17:00,
2013-06-07 15:32:00,76.7,73.0,29.54,South,189,8.0,-999.0,88,-99.99,,,0.54,weatherlink.com 1.10,2013-06-07 19:32:00,
2013-06-07 16:17:00,77.6,73.0,29.55,SSW,205,23.0,-999.0,86,-99.99,,,0.55,weatherlink.com 1.10,2013-06-07 20:17:00,
2013-06-07 16:32:00,77.4,73.0,29.55,WSW,250,15.0,-999.0,86,-99.99,,,0.55,weatherlink.com 1.10,2013-06-07 20:32:00,
2013-06-07 16:47:00,77.2,73.0,29.55,SW,215,14.0,-999.0,87,-99.99,,,0.55,weatherlink.com 1.10,2013-06-07 20:47:00,
2013-06-07 17:02:00,77.4,73.0,29.56,SSW,198,22.0,-999.0,86,-99.99,,,0.55,weatherlink.com 1.10,2013-06-07 21:02:00,
2013-06-07 17:17:00,77.4,74.0,29.56,West,274,23.0,-999.0,88,-99.99,,,0.55,weatherlink.com 1.10,2013-06-07 21:17:00,
2013-06-07 17:47:00,77.6,73.0,29.58,WSW,237,14.0,-999.0,86,-99.99,,,0.55,weatherlink.com 1.10,2013-06-07 21:47:00,
2013-06-07 18:02:00,77.0,73.0,29.59,SW,233,11.0,-999.0,87,-99.99,,,0.55,weatherlink.com 1.10,2013-06-07 22:02:00,
2013-06-07 18:17:00,77.0,73.0,29.60,WSW,243,14.0,-999.0,87,-99.99,,,0.55,weatherlink.com 1.10,2013-06-07 22:17:00,
2013-06-07 18:32:00,77.0,73.0,29.60,WSW,246,14.0,-999.0,87,-99.99,,,0.55,weatherlink.com 1.10,2013-06-07 22:32:00,
2013-06-07 18:47:00,77.2,73.0,29.62,SW,222,8.0,-999.0,87,-99.99,,,0.55,weatherlink.com 1.10,2013-06-07 22:47:00,
2013-06-07 19:02:00,77.4,73.0,29.63,West,263,8.0,-999.0,85,-99.99,,,0.55,weatherlink.com 1.10,2013-06-07 23:02:00,
2013-06-07 19:17:00,77.4,72.0,29.64,NNW,343,4.0,-999.0,84,-99.99,,,0.55,weatherlink.com 1.10,2013-06-07 23:17:00,
2013-06-07 19:32:00,77.4,72.0,29.65,West,278,15.0,-999.0,83,-99.99,,,0.55,weatherlink.com 1.10,2013-06-07 23:32:00,
2013-06-07 19:47:00,77.4,72.0,29.66,West,264,8.0,-999.0,83,-99.99,,,0.55,weatherlink.com 1.10,2013-06-07 23:47:00,
2013-06-07 20:02:00,77.4,72.0,29.67,SW,226,2.0,-999.0,83,-99.99,,,0.55,weatherlink.com 1.10,2013-06-08 00:02:00,
2013-06-07 20:17:00,77.2,71.0,29.68,WSW,257,9.0,-999.0,82,-99.99,,,0.55,weatherlink.com 1.10,2013-06-08 00:17:00,
2013-06-07 20:32:00,77.2,72.0,29.69,WNW,294,6.0,-999.0,84,-99.99,,,0.55,weatherlink.com 1.10,2013-06-08 00:32:00,
2013-06-07 20:47:00,77.0,72.0,29.70,WSW,247,9.0,-999.0,85,-99.99,,,0.55,weatherlink.com 1.10,2013-06-08 00:47:00,
2013-06-07 21:02:00,76.8,73.0,29.72,SW,219,8.0,-999.0,87,-99.99,,,0.55,weatherlink.com 1.10,2013-06-08 01:02:00,
2013-06-07 21:17:00,76.7,73.0,29.73,SW,230,13.0,-999.0,87,-99.99,,,0.55,weatherlink.com 1.10,2013-06-08 01:17:00,
2013-06-07 21:32:00,76.8,72.0,29.74,WNW,282,11.0,-999.0,86,-99.99,,,0.55,weatherlink.com 1.10,2013-06-08 01:32:00,
2013-06-07 22:32:00,76.5,73.0,29.79,SW,224,0.0,-999.0,88,-99.99,,,0.55,weatherlink.com 1.10,2013-06-08 02:32:00,
2013-06-07 23:02:00,76.3,74.0,29.80,WSW,243,2.0,-999.0,91,-99.99,,,0.55,weatherlink.com 1.10,2013-06-08 03:02:00,
2013-06-07 23:17:00,76.0,74.0,29.81,WSW,240,0.0,-999.0,92,-99.99,,,0.55,weatherlink.com 1.10,2013-06-08 03:17:00,
2013-06-07 23:47:00,75.8,74.0,29.81,WSW,243,7.0,-999.0,93,-99.99,,,0.55,weatherlink.com 1.10,2013-06-08 03:47:00,